Hourly Data Report for June 27, 2021

FISHER BRANCH (AUT)
MANITOBA
Current Station Operator: ECCC - MSC

51°05'00.100" N
97°33'16.200" W
253.00 m
50309J6
71442
WSZ

Download Data

Hourly Data (June 2021)
Hourly Data Report for June 27, 2021
TIME
LST
Temp Definition
°C
Dew Point Definition
°C
Rel Hum Definition
%
Precip. Amount Definition
mm

Wind Dir Definition
10's deg

Wind Spd Definition
km/h
Visibility Definition
km
Stn Press Definition
kPa
Hmdx Definition


Wind Chill Definition


Weather Definition


00:00 13.4 5.9 60 0.0 31 7   98.20     LegendNANA
01:00 12.7 6.5 66 0.0 30 11   98.19     LegendNANA
02:00 10.5 6.2 75 0.2 30 7   98.18     LegendNANA
03:00 11.0 6.1 72 0.0 28 8   98.17     LegendNANA
04:00 9.9 5.6 74 0.0 29 12   98.20     LegendNANA
05:00 10.6 5.9 73 0.0 29 12   98.22     LegendNANA
06:00 13.7 7.3 65 0.0 26 3   98.24     LegendNANA
07:00 17.3 7.1 51 0.0 32 9   98.26     LegendNANA
08:00 19.6 7.3 45 0.0 32 10   98.29     LegendNANA
09:00 22.1 8.4 41 0.0 32 7   98.32     LegendNANA
10:00 24.3 6.1 31 0.0 33 12   98.33     LegendNANA
11:00 24.5 7.2 33 0.0 30 11   98.35 25   LegendNANA
12:00 25.2 8.4 34 0.0 31 11   98.36 26   LegendNANA
13:00 25.3 10.4 39 0.0 30 11   98.33 27   LegendNANA
14:00 24.6 12.3 46 0.0 28 10   98.30 27   LegendNANA
15:00 17.5 13.8 79 0.0 34 31   98.42     LegendNANA
16:00 17.4 14.9 85 4.9 33 15   98.47     LegendNANA
17:00 17.8 14.6 81 1.0 32 9   98.49     LegendNANA
18:00 19.6 16.3 82 0.0 20 4   98.52     LegendNANA
19:00 20.8 16.0 74 0.0 26 6   98.56 25   LegendNANA
20:00 20.2 14.2 69 0.0 33 12   98.58     LegendNANA
21:00 17.7 13.9 78 0.0 33 13   98.63     LegendNANA
22:00 16.3 13.6 84 0.0 32 11   98.65     LegendNANA
23:00 15.4 13.3 87 0.0 32 9   98.68     LegendNANA

Notes on Data Quality.

Legend

  • E = Estimated
  • M = Missing
  • NA = Not Available*
  • [empty] = Indicates an unobserved value
Date modified: